Fremont, MI

7:02 PM EST on December 15, 2019 (GMT -0500)
Fremont

Weather History for KFFX - November, 2019

Change the Weather History Date:

Friday, November 22, 2019

  Actual Average (KMKG) Record (KMKG)
Temperature  
Mean Temperature 31 °F -  
Max Temperature 36 °F 43 °F 67 °F (1934)
Min Temperature 25 °F 29 °F 14 °F (1971)
Degree Days  
Heating Degree Days 34    
Moisture  
Dew Point 25 °F    
Average Humidity 75    
Maximum Humidity 100    
Minimum Humidity 61    
Precipitation  
Precipitation 0.00 in - - ()
Sea Level Pressure  
Sea Level Pressure 30.07 in    
Wind  
Wind Speed 10 mph ()    
Max Wind Speed 20 mph    
Max Gust Speed 29 mph    
Visibility 10.0 miles    
Events      
Averages and records for this station are not official NWS values.
T = Trace of Precipitation, MM = Missing Value Source: Averaged Metar Reports

Daily Weather History Graph

Daily Weather History Graph

Search for Another Location

Airport or City:

Astronomy

Nov. 22, 2019 Rise Set
Actual Time 7:46 AM EST 5:13 PM EST
Civil Twilight 7:14 AM EST 5:45 PM EST
Nautical Twilight 6:39 AM EST 6:20 PM EST
Astronomical Twilight 6:05 AM EST 6:54 PM EST
Moon 2:40 AM EST (11/22) 3:23 PM EST (11/22)
Length of Visible Light 10h 30m
Length of Day
9h 27m
Waning Crescent, 20% of the Moon is Illuminated
Nov 22
Waning Crescent
Nov 26
New
Dec 4
First Quarter
Dec 12
Full
Dec 18
Last Quarter

Hourly Weather History & Observations

Time (EST) Temp. Windchill Dew Point Humidity Pressure Visibility Wind Dir Wind Speed Gust Speed Precip Events Conditions
12:15 AM 37.4 °F 28.2 °F 30.9 °F 77% 29.90 in 10.0 mi NW 16.1 mph 28.8 mph N/A   Overcast
12:16 AM 37.4 °F 27.5 °F 30.9 °F 77% 29.91 in 10.0 mi NW 18.4 mph 28.8 mph N/A   Overcast
12:36 AM 36.5 °F 27.4 °F 31.8 °F 83% 29.92 in 10.0 mi NW 15.0 mph 26.5 mph N/A   Overcast
12:56 AM 35.6 °F 25.9 °F 34.2 °F 94% 29.92 in 10.0 mi NNW 16.1 mph 20.7 mph N/A   Overcast
1:15 AM 35.8 °F 26.5 °F 30.7 °F 82% 29.93 in 10.0 mi NNW 15.0 mph 23.0 mph N/A   Overcast
1:35 AM 35.6 °F 27.5 °F 29.8 °F 80% 29.93 in 10.0 mi NNW 11.5 mph 21.9 mph N/A   Overcast
1:36 AM 35.6 °F 28.0 °F 29.8 °F 80% 29.93 in 10.0 mi NNW 10.4 mph 21.9 mph N/A   Overcast
1:55 AM 35.6 °F 25.9 °F 29.5 °F 78% 29.94 in 10.0 mi NW 16.1 mph - N/A   Overcast
2:15 AM 35.6 °F 28.0 °F 29.7 °F 79% 29.95 in 10.0 mi NW 10.4 mph 17.3 mph N/A   Overcast
2:16 AM 35.6 °F 27.5 °F 29.8 °F 80% 29.95 in 10.0 mi NW 11.5 mph 17.3 mph N/A   Overcast
2:35 AM 35.6 °F 28.0 °F 31.8 °F 86% 29.96 in 10.0 mi NNW 10.4 mph 18.4 mph N/A   Overcast
2:55 AM 35.6 °F 28.6 °F 32.4 °F 88% 29.98 in 10.0 mi WNW 9.2 mph - N/A   Overcast
3:15 AM 35.8 °F 27.3 °F 28.6 °F 75% 29.99 in 10.0 mi NW 12.7 mph - N/A   Overcast
3:16 AM 35.8 °F 28.3 °F 28.6 °F 75% 29.99 in 10.0 mi NW 10.4 mph - N/A   Overcast
3:35 AM 34.9 °F 23.9 °F 26.2 °F 71% 29.99 in 10.0 mi NW 19.6 mph 27.6 mph N/A   Overcast
3:55 AM 34.2 °F 23.6 °F 26.1 °F 72% 29.99 in 10.0 mi NNW 17.3 mph 21.9 mph N/A   Overcast
3:56 AM 34.2 °F 23.6 °F 26.1 °F 72% 29.99 in 10.0 mi NNW 17.3 mph 21.9 mph N/A   Overcast
4:35 AM 33.3 °F 23.2 °F 23.9 °F 69% 30.00 in 10.0 mi NW 15.0 mph 27.6 mph N/A   Overcast
4:55 AM 32.9 °F 22.0 °F 23.9 °F 69% 30.01 in 10.0 mi NW 17.3 mph - N/A   Overcast
5:15 AM 32.7 °F 22.1 °F 24.1 °F 71% 30.03 in 10.0 mi NW 16.1 mph 24.2 mph N/A   Overcast
5:35 AM 32.4 °F 23.5 °F 23.5 °F 70% 30.04 in 10.0 mi NNW 11.5 mph - N/A   Overcast
5:55 AM 32.4 °F 22.5 °F 23.7 °F 70% 30.04 in 10.0 mi NNW 13.8 mph 18.4 mph N/A   Overcast
5:56 AM 32.4 °F 22.1 °F 23.7 °F 70% 30.04 in 10.0 mi NNW 15.0 mph 18.4 mph N/A   Overcast
6:16 AM 32.4 °F 21.3 °F 22.3 °F 66% 30.05 in 10.0 mi NNW 17.3 mph 23.0 mph N/A   Overcast
6:35 AM 32.2 °F 22.3 °F 22.3 °F 67% 30.05 in 10.0 mi NNW 13.8 mph 20.7 mph N/A   Overcast
6:55 AM 32.0 °F 22.5 °F 22.8 °F 69% 30.05 in 10.0 mi NNW 12.7 mph 20.7 mph N/A   Overcast
6:56 AM 32.0 °F 22.5 °F 22.8 °F 69% 30.05 in 10.0 mi NNW 12.7 mph 20.7 mph N/A   Overcast
7:15 AM 32.0 °F 22.5 °F 22.5 °F 68% 30.05 in 10.0 mi NNW 12.7 mph 19.6 mph N/A   Overcast
7:16 AM 32.0 °F 22.1 °F 22.5 °F 68% 30.06 in 10.0 mi NNW 13.8 mph 19.6 mph N/A   Overcast
7:36 AM 32.0 °F 22.1 °F 21.7 °F 66% 30.06 in 10.0 mi North 13.8 mph 20.7 mph N/A   Overcast
7:55 AM 32.0 °F 22.5 °F 22.1 °F 67% 30.07 in 10.0 mi North 12.7 mph - N/A   Overcast
8:15 AM 32.0 °F 24.2 °F 21.7 °F 66% 30.08 in 10.0 mi NNW 9.2 mph - N/A   Overcast
8:35 AM 32.0 °F 24.8 °F 21.9 °F 66% 30.09 in 10.0 mi NNW 8.1 mph - N/A   Overcast
8:55 AM 32.4 °F 25.3 °F 21.6 °F 64% 30.11 in 10.0 mi NNW 8.1 mph 16.1 mph N/A   Overcast
9:35 AM 32.9 °F 24.1 °F 21.6 °F 63% 30.12 in 10.0 mi NW 11.5 mph - N/A   Overcast
9:55 AM 32.9 °F 24.1 °F 21.6 °F 63% 30.13 in 10.0 mi NNW 11.5 mph - N/A   Overcast
10:15 AM 32.9 °F 24.7 °F 21.7 °F 64% 30.14 in 10.0 mi NW 10.4 mph 17.3 mph N/A   Overcast
10:16 AM 32.9 °F 24.1 °F 21.7 °F 64% 30.14 in 10.0 mi NW 11.5 mph 17.3 mph N/A   Overcast
10:35 AM 32.9 °F 24.7 °F 21.6 °F 63% 30.15 in 10.0 mi North 10.4 mph - N/A   Overcast
10:36 AM 32.9 °F 24.7 °F 21.6 °F 63% 30.15 in 10.0 mi North 10.4 mph - N/A   Overcast
10:55 AM 32.9 °F 24.1 °F 21.7 °F 64% 30.15 in 10.0 mi NW 11.5 mph - N/A   Overcast
11:15 AM 33.3 °F 23.7 °F 21.7 °F 63% 30.15 in 10.0 mi NNW 13.8 mph 18.4 mph N/A   Overcast
11:35 AM 33.4 °F 25.9 °F 21.6 °F 62% 30.15 in 10.0 mi NNW 9.2 mph - N/A   Overcast
11:36 AM 33.6 °F 26.2 °F 21.6 °F 61% 30.15 in 10.0 mi NNW 9.2 mph - N/A   Overcast
11:55 AM 33.4 °F 24.8 °F 21.9 °F 63% 30.15 in 10.0 mi NNW 11.5 mph 17.3 mph N/A   Overcast
12:15 PM 33.8 °F 26.4 °F 22.8 °F 64% 30.15 in 10.0 mi NNW 9.2 mph - N/A   Overcast
12:16 PM 33.8 °F 25.8 °F 22.5 °F 63% 30.15 in 10.0 mi NNW 10.4 mph - N/A   Overcast
12:35 PM 33.8 °F 26.4 °F 22.8 °F 64% 30.15 in 10.0 mi NW 9.2 mph - N/A   Overcast
12:55 PM 33.4 °F 25.9 °F 22.6 °F 65% 30.15 in 10.0 mi WNW 9.2 mph - N/A   Overcast
1:15 PM 33.8 °F 26.4 °F 22.6 °F 64% 30.14 in 10.0 mi WNW 9.2 mph - N/A   Overcast
1:35 PM 33.8 °F 27.7 °F 22.3 °F 63% 30.13 in 10.0 mi North 6.9 mph - N/A   Overcast
1:55 PM 34.2 °F 26.8 °F 22.8 °F 63% 30.13 in 10.0 mi NW 9.2 mph - N/A   Overcast
2:15 PM 34.0 °F 27.2 °F 22.6 °F 63% 30.13 in 10.0 mi NW 8.1 mph - N/A   Overcast
2:35 PM 34.0 °F 26.6 °F 22.1 °F 62% 30.13 in 10.0 mi West 9.2 mph - N/A   Overcast
2:55 PM 34.2 °F 28.2 °F 22.1 °F 61% 30.12 in 10.0 mi WNW 6.9 mph - N/A   Overcast
2:56 PM 34.2 °F 28.2 °F 22.1 °F 61% 30.12 in 10.0 mi NW 6.9 mph - N/A   Overcast
3:15 PM 34.0 °F 28.0 °F 22.3 °F 62% 30.12 in 10.0 mi West 6.9 mph - N/A   Overcast
3:35 PM 33.8 °F 29.6 °F 22.3 °F 63% 30.12 in 10.0 mi NW 4.6 mph - N/A   Overcast
3:55 PM 34.3 °F 28.4 °F 22.6 °F 62% 30.12 in 10.0 mi West 6.9 mph - N/A   Overcast
3:56 PM 34.5 °F 29.4 °F 22.6 °F 62% 30.12 in 10.0 mi West 5.8 mph - N/A   Overcast
4:15 PM 34.5 °F 30.4 °F 22.6 °F 62% 30.12 in 10.0 mi NW 4.6 mph - N/A   Overcast
4:35 PM 33.8 °F 30.8 °F 22.1 °F 62% 30.12 in 10.0 mi West 3.5 mph - N/A   Scattered Clouds
4:55 PM 32.7 °F - 22.1 °F 65% 30.12 in 10.0 mi Calm Calm - N/A   Clear
4:56 PM 32.7 °F - 22.1 °F 65% 30.12 in 10.0 mi Calm Calm - N/A   Clear
5:15 PM 31.6 °F - 22.1 °F 68% 30.12 in 10.0 mi Calm Calm - N/A   Clear
5:35 PM 30.9 °F 27.5 °F 22.8 °F 72% 30.12 in 10.0 mi West 3.5 mph - N/A   Clear
5:36 PM 30.9 °F 27.5 °F 22.8 °F 72% 30.12 in 10.0 mi West 3.5 mph - N/A   Clear
5:55 PM 30.0 °F 26.5 °F 23.4 °F 76% 30.13 in 10.0 mi WNW 3.5 mph - N/A   Clear
6:15 PM 30.0 °F - 23.0 °F 75% 30.12 in 10.0 mi Calm Calm - N/A   Clear
6:35 PM 29.8 °F 26.3 °F 23.4 °F 77% 30.12 in 10.0 mi West 3.5 mph - N/A   Clear
6:36 PM 29.8 °F 26.3 °F 23.4 °F 77% 30.12 in 10.0 mi West 3.5 mph - N/A   Clear
7:15 PM 28.8 °F - 23.0 °F 79% 30.11 in 10.0 mi Calm Calm - N/A   Clear
7:16 PM 28.8 °F - 23.0 °F 79% 30.11 in 10.0 mi Calm Calm - N/A   Clear
7:35 PM 27.7 °F - 24.6 °F 88% 30.10 in 10.0 mi Calm Calm - N/A   Clear
7:55 PM 27.9 °F - 24.4 °F 87% 30.10 in 10.0 mi Calm Calm - N/A   Clear
8:15 PM 27.5 °F - 24.1 °F 87% 30.10 in 10.0 mi Calm Calm - N/A   Clear
8:35 PM 27.0 °F - 27.0 °F 100% 30.09 in 10.0 mi Calm Calm - N/A   Clear
8:36 PM 27.0 °F 23.0 °F 27.0 °F 100% 30.09 in 10.0 mi SSW 3.5 mph - N/A   Clear
8:55 PM 26.6 °F - 26.6 °F 100% 30.07 in 10.0 mi Calm Calm - N/A   Clear
9:15 PM 25.3 °F - 25.3 °F 100% 30.07 in 10.0 mi Calm Calm - N/A   Clear
9:35 PM 25.7 °F - 25.7 °F 100% 30.06 in 10.0 mi Calm Calm - N/A   Clear
9:36 PM 25.7 °F - 25.7 °F 100% 30.06 in 10.0 mi Calm Calm - N/A   Clear
9:55 PM 27.0 °F - 27.0 °F 100% 30.05 in 10.0 mi Calm Calm - N/A   Clear
10:15 PM 26.4 °F - 26.4 °F 100% 30.05 in 10.0 mi Calm Calm - N/A   Clear
10:35 PM 26.6 °F - 26.6 °F 100% 30.05 in 10.0 mi Calm Calm - N/A   Clear
10:55 PM 26.6 °F - 26.6 °F 100% 30.05 in 10.0 mi Calm Calm - N/A   Clear
10:56 PM 26.6 °F - 26.6 °F 100% 30.05 in 10.0 mi Calm Calm - N/A   Clear
11:15 PM 27.0 °F - 27.0 °F 100% 30.04 in 10.0 mi Calm Calm - N/A   Clear
11:16 PM 27.0 °F - 27.0 °F 100% 30.04 in 10.0 mi Calm Calm - N/A   Clear
11:35 PM 26.6 °F 22.6 °F 26.6 °F 100% 30.04 in 10.0 mi South 3.5 mph - N/A   Clear
11:55 PM 27.1 °F 23.2 °F 27.1 °F 100% 30.03 in 10.0 mi South 3.5 mph - N/A   Clear